Regional Weather Roundup
Issued by NWS Charleston, WV

Home | Current Version | Previous Version | Text Only | Print | Product List | Glossary Off
Versions: 1 2 3 4 5 6 7 8 9 10 11 12 13 14 15 16 17 18 19 20 21 22 23 24 25 26 27 28

000
ASUS41 KRLX 200010
RWRRLX
West Virginia Regional Weather Roundup
National Weather Service Charleston WV
800 PM EDT THU APR 19 2018

Note: "fair" indicates few or no clouds below 12,000 feet with no
significant weather and/or obstructions to visibility.

WVZ003-200100-
Northern Panhandle of West Virginia

CITY           SKY/WX    TMP DP  RH WIND       PRES   REMARKS
WHEELING       FAIR      44  24  45 W8        30.17R
$$

WVZ009-200100-
Northwest West Virginia

CITY           SKY/WX    TMP DP  RH WIND       PRES   REMARKS
PARKERSBURG    FAIR      47  27  45 W8        30.24R
$$

WVZ006-200100-
Western West Virginia

CITY           SKY/WX    TMP DP  RH WIND       PRES   REMARKS
HUNTINGTON     FAIR      47  27  45 NW6       30.26R
$$

WVZ015-200100-
West Central West Virginia

CITY           SKY/WX    TMP DP  RH WIND       PRES   REMARKS
CHARLESTON     FAIR      45  28  51 NW6       30.24R
$$

WVZ022-031-200100-
North Central West Virginia

CITY           SKY/WX    TMP DP  RH WIND       PRES   REMARKS
CLARKSBURG     CLOUDY    43  28  55 W6        30.19R
MORGANTOWN     MOCLDY    42  30  62 VRB3      30.18R
$$

WVZ025-035-042-045-200100-
Southern West Virginia

CITY           SKY/WX    TMP DP  RH WIND       PRES   REMARKS
BECKLEY        MOCLDY    37  25  61 NW14G21   30.19R
LOGAN          FAIR      43  28  56 CALM      30.24R
BLUEFIELD      MOCLDY    35  24  64 NW10G20   30.19R
LEWISBURG      FAIR      38  26  60 NW9G20    30.17R
$$

WVZ047-200100-
Northern Mountains of West Virginia

CITY           SKY/WX    TMP DP  RH WIND       PRES   REMARKS
ELKINS         CLOUDY    38  25  59 NW10G17   30.17R
$$

WVZ052-200100-
Eastern Panhandle of West Virginia

CITY           SKY/WX    TMP DP  RH WIND       PRES   REMARKS
MARTINSBURG    MOCLDY    43  26  51 NW17G26   30.10R
PETERSBURG     CLOUDY    42  26  53 NW13G21   30.15R
$$




USA.gov is the U.S. government's official web portal to all federal, state and local government web resources and services.